Weather History for KLEW - September, 2013

Change the Weather History Date:

Saturday, September 14, 2013

  Actual Average Record
Temperature  
Mean Temperature 57 °F -  
Max Temperature 66 °F 69 °F 80 °F (2005)
Min Temperature 48 °F 49 °F 39 °F (1998)
Degree Days  
Heating Degree Days 8    
Growing Degree Days 7 (Base 50)    
Moisture  
Dew Point 50 °F    
Average Humidity 81    
Maximum Humidity 94    
Minimum Humidity 52    
Precipitation  
Precipitation 0.02 in - - ()
Sea Level Pressure  
Sea Level Pressure 29.89 in    
Wind  
Wind Speed 5 mph (NW)    
Max Wind Speed 13 mph    
Max Gust Speed 16 mph    
Visibility 10 miles    
Events      
Averages and records for this station are not official NWS values.
T = Trace of Precipitation, MM = Missing Value Source: NWS Daily Summary

Daily Weather History Graph

Daily Weather History Graph

Search for Another Location

Airport or City:

Trip Planner

Search our weather history database for the weather conditions in past years. The results will help you decide how hot, cold, wet, or windy it might be!

Date:

Astronomy

Sep. 14, 2013 Rise Set
Actual Time 6:19 AM EDT 6:53 PM EDT
Civil Twilight 5:50 AM EDT 7:21 PM EDT
Nautical Twilight 5:15 AM EDT 7:56 PM EDT
Astronomical Twilight 4:40 AM EDT 8:31 PM EDT
Moon 3:39 PM EDT (9/14) 12:38 AM EDT (9/14)
Length of Visible Light 13h 31m
Length of Day
12h 33m
Waxing Gibbous, 72% of the Moon is Illuminated
Sep 14
Waxing Gibbous
Sep 19
Full
Sep 26
Last Quarter
Oct 4
New
Oct 11
First Quarter

Hourly Weather History & Observations

Time (EDT) Temp. Dew Point Humidity Pressure Visibility Wind Dir Wind Speed Gust Speed Precip Events Conditions
12:15 AM 57.2 °F 53.6 °F 88% - 10.0 mi NW 5.8 mph - N/A   Mostly Cloudy
12:35 AM 55.4 °F 51.8 °F 88% - 10.0 mi NW 4.6 mph - N/A   Clear
12:55 AM 55.4 °F 51.8 °F 88% - 10.0 mi NNW 4.6 mph - N/A   Clear
1:15 AM 55.4 °F 51.8 °F 88% - 10.0 mi NNW 4.6 mph - N/A   Clear
1:35 AM 55.4 °F 51.8 °F 88% 29.76 in 10.0 mi NW 3.5 mph - N/A   Clear
1:55 AM 55.4 °F 51.8 °F 88% 29.77 in 10.0 mi North 3.5 mph - N/A   Clear
2:15 AM 53.6 °F 51.8 °F 94% 29.77 in 10.0 mi NNW 3.5 mph - N/A   Clear
2:35 AM - - N/A% 29.76 in 10.0 mi NNE 3.5 mph - N/A   Clear
2:55 AM - - N/A% 29.76 in 10.0 mi North 3.5 mph - N/A   Scattered Clouds
3:35 AM 55.4 °F 51.8 °F 88% 29.78 in 10.0 mi NNW 3.5 mph - 0.01 in   Overcast
3:55 AM 55.4 °F 51.8 °F 88% 29.79 in 10.0 mi Calm Calm - 0.01 in   Overcast
4:15 AM - - N/A% 29.78 in 10.0 mi North 3.5 mph - N/A   Overcast
4:35 AM 55.4 °F 51.8 °F 88% 29.78 in 10.0 mi North - - N/A   Mostly Cloudy
4:55 AM 53.6 °F 51.8 °F 94% 29.80 in 10.0 mi WNW 3.5 mph - N/A   Overcast
5:15 AM 55.4 °F 51.8 °F 88% 29.80 in 10.0 mi Calm Calm - N/A   Overcast
5:35 AM 53.6 °F 51.8 °F 94% 29.80 in 10.0 mi Calm Calm - N/A   Overcast
5:55 AM 53.6 °F 51.8 °F 94% 29.81 in 10.0 mi Calm Calm - N/A   Overcast
6:15 AM 53.6 °F 51.8 °F 94% 29.81 in 10.0 mi Calm Calm - N/A   Mostly Cloudy
6:35 AM 53.6 °F 51.8 °F 94% 29.82 in 10.0 mi North 3.5 mph - N/A   Overcast
6:55 AM 53.6 °F 51.8 °F 94% 29.82 in 10.0 mi NNE 3.5 mph - N/A   Overcast
7:15 AM 55.4 °F 51.8 °F 88% 29.83 in 10.0 mi Calm Calm - N/A   Mostly Cloudy
7:35 AM 55.4 °F 51.8 °F 88% 29.84 in 10.0 mi NW 5.8 mph - N/A   Mostly Cloudy
8:15 AM 57.2 °F 51.8 °F 82% 29.86 in 10.0 mi NW 5.8 mph - N/A   Overcast
8:35 AM - - N/A% 29.85 in 10.0 mi NW 8.1 mph - N/A   Overcast
8:55 AM 59.0 °F 53.6 °F 82% 29.87 in 10.0 mi WNW 8.1 mph - N/A   Overcast
9:15 AM - - N/A% 29.87 in 10.0 mi WNW 8.1 mph - N/A   Overcast
9:35 AM - - N/A% 29.87 in 10.0 mi NW 12.7 mph - N/A   Mostly Cloudy
9:55 AM - - N/A% 29.87 in 10.0 mi NW 9.2 mph - N/A   Mostly Cloudy
10:15 AM 60.8 °F 51.8 °F 72% 29.88 in 10.0 mi WNW 4.6 mph - N/A   Overcast
10:35 AM - - N/A% 29.87 in 10.0 mi WNW 8.1 mph - N/A   Mostly Cloudy
10:55 AM - - N/A% 29.87 in 10.0 mi NW 9.2 mph - N/A   Mostly Cloudy
11:15 AM - - N/A% 29.87 in 10.0 mi NW 9.2 mph - N/A   Mostly Cloudy
11:35 AM 64.4 °F 51.8 °F 64% 29.87 in 10.0 mi WNW 5.8 mph - N/A   Partly Cloudy
11:55 AM - - N/A% 29.87 in 10.0 mi NNW 9.2 mph - N/A   Mostly Cloudy
12:15 PM 64.4 °F 51.8 °F 64% 29.88 in 10.0 mi NNW 6.9 mph - N/A   Mostly Cloudy
12:35 PM - - N/A% 29.87 in 10.0 mi NW 8.1 mph - N/A   Scattered Clouds
12:55 PM - - N/A% 29.87 in 10.0 mi NNW 8.1 mph - N/A   Mostly Cloudy
1:15 PM - - N/A% 29.88 in 10.0 mi NW 5.8 mph - N/A   Mostly Cloudy
1:35 PM - - N/A% 29.87 in 10.0 mi NW 6.9 mph - N/A   Mostly Cloudy
1:55 PM - - N/A% 29.87 in 10.0 mi NW 9.2 mph - N/A   Mostly Cloudy
2:15 PM 66.2 °F 48.2 °F 52% 29.88 in 10.0 mi NW 10.4 mph - N/A   Mostly Cloudy
2:35 PM 66.2 °F 50.0 °F 56% 29.88 in 10.0 mi West 9.2 mph - N/A   Scattered Clouds
2:55 PM - - N/A% 29.88 in 10.0 mi NNW 11.5 mph 16.1 mph N/A   Clear
3:15 PM - - N/A% 29.89 in 10.0 mi NW 10.4 mph - N/A   Scattered Clouds
3:35 PM - - N/A% 29.89 in 10.0 mi NNW 11.5 mph 16.1 mph N/A   Scattered Clouds
3:55 PM - - N/A% 29.90 in 10.0 mi NNW 8.1 mph - N/A   Scattered Clouds
4:15 PM 66.2 °F 48.2 °F 52% 29.91 in 10.0 mi NW 9.2 mph - N/A   Partly Cloudy
4:35 PM - - N/A% 29.91 in 10.0 mi NNW 12.7 mph - N/A   Clear
4:56 PM - - N/A% 29.92 in 10.0 mi NNW 10.4 mph - N/A   Clear
5:15 PM - - N/A% 29.92 in 10.0 mi NNW 10.4 mph - N/A   Clear
5:35 PM - - N/A% 29.93 in 10.0 mi NNW 10.4 mph - N/A   Clear
5:55 PM - - N/A% 29.93 in 10.0 mi NNW 8.1 mph - N/A   Clear
6:15 PM - - N/A% 29.94 in 10.0 mi NNW 11.5 mph 16.1 mph N/A   Clear
6:35 PM - - N/A% 29.94 in 10.0 mi NNW 6.9 mph - N/A   Clear
6:55 PM 60.8 °F 46.4 °F 59% 29.96 in 10.0 mi NNW 6.9 mph - N/A   Clear
7:15 PM 59.0 °F 48.2 °F 67% 29.97 in 10.0 mi NW 4.6 mph - N/A   Clear
7:35 PM 57.2 °F 48.2 °F 72% 29.98 in 10.0 mi Calm Calm - N/A   Partly Cloudy
7:55 PM 57.2 °F 48.2 °F 72% 30.00 in 10.0 mi NW 4.6 mph - N/A   Mostly Cloudy
8:15 PM 57.2 °F 48.2 °F 72% 30.00 in 10.0 mi NNW 5.8 mph - N/A   Overcast
8:35 PM 57.2 °F 48.2 °F 72% 30.00 in 10.0 mi NW 5.8 mph - N/A   Mostly Cloudy
8:55 PM 55.4 °F 48.2 °F 77% 30.01 in 10.0 mi NW 5.8 mph - N/A   Partly Cloudy
9:15 PM 55.4 °F 48.2 °F 77% 30.02 in 10.0 mi NW 4.6 mph - N/A   Clear
9:35 PM 53.6 °F 48.2 °F 82% 30.02 in 10.0 mi Calm Calm - N/A   Clear
9:55 PM 53.6 °F 48.2 °F 82% 30.02 in 10.0 mi Calm Calm - N/A   Clear
10:15 PM 53.6 °F 48.2 °F 82% 30.02 in 10.0 mi Calm Calm - N/A   Clear
10:35 PM 50.0 °F 46.4 °F 87% 30.02 in 10.0 mi Calm Calm - N/A   Clear
10:55 PM 50.0 °F 46.4 °F 87% - 10.0 mi Calm Calm - N/A   Clear
11:15 PM 48.2 °F 46.4 °F 93% 30.03 in 10.0 mi Calm Calm - N/A   Clear
11:35 PM 48.2 °F 44.6 °F 87% - 10.0 mi Calm Calm - N/A   Clear
11:55 PM 48.2 °F 44.6 °F 87% 30.03 in 10.0 mi Calm Calm - 0.01 in   Clear